• Join FlightAware (Why Join?)
  • Login
  • US Flag 
12:21AM EST


 

Airport Tracker/Info


-or-


 

Live Flight TrackerFlight Track Log ✈ SWA353 ✈ 06-Apr-2014 ✈ KMDW - KPHL

Flight Track Log - Related Links

Times and Time Zones

All times are in EDT time to prevent confusion due to time zone crossing. See the SWA353 flight status page for this flight to view local times or setup timezone preferences in your user account.

Time Position Orientation Groundspeed Altitude Reporting Facility
EDT Latitude Longitude Course Direction KTS MPH feet Rate Location/Type
03:15PM 41.7667 -87.7667 132° Southeast 158 182 1,900  Level Chicago TRACON
03:16PM 41.7333 -87.7167 132° Southeast 215 247 3,000 1,368 Climbing Chicago TRACON
03:17PM 41.7333 -87.6500 90° East 227 261 4,500 2,430 Climbing Chicago TRACON
03:18PM 41.7333 -87.5447 90° East 261 300 7,900 3,302 Climbing Chicago Center
03:19PM 41.7414 -87.4267 85° East 296 341 11,600 2,855 Climbing Chicago Center
03:20PM 41.7481 -87.3069 86° East 325 374 13,800 2,613 Climbing Chicago Center
03:21PM 41.7564 -87.1644 85° East 357 411 17,000 2,758 Climbing Chicago Center
03:22PM 41.7619 -87.0206 87° East 384 442 19,500 2,544 Climbing Chicago Center
03:23PM 41.7639 -86.8725 89° East 394 453 22,300 2,400 Climbing Chicago Center
03:25PM 41.7589 -86.7178 92° East 412 474 24,500 2,129 Climbing Chicago Center
03:26PM 41.7547 -86.5372 92° East 439 505 26,700 1,984 Climbing Chicago Center
03:27PM 41.7517 -86.3667 91° East 453 521 28,600 1,742 Climbing Chicago Center
03:28PM 41.7472 -86.1933 92° East 465 535 30,300 1,452 Climbing Chicago Center
03:29PM 41.7425 -86.0125 92° East 483 556 31,600 1,161 Climbing Chicago Center
03:30PM 41.7383 -85.8250 92° East 497 572 32,700 1,161 Climbing Chicago Center
03:31PM 41.7331 -85.6297 92° East 517 595 34,000 1,355 Climbing Chicago Center
03:32PM 41.7264 -85.4117 92° East 520 598 35,500 1,306 Climbing Chicago Center
03:33PM 41.7211 -85.2228 92° East 553 636 36,700 726 Climbing Chicago Center
03:34PM 41.7136 -84.9842 92° East 535 616 37,000 173 Climbing Chicago Center
03:35PM 41.7081 -84.8678 94° East 530 610 37,000  Level Cleveland Center
03:36PM 41.7017 -84.6728 92° East 528 608 37,000  Level Cleveland Center
03:37PM 41.6939 -84.4783 93° East 527 606 37,000  Level Cleveland Center
03:38PM 41.6831 -84.2464 94° East 525 604 37,000  Level Cleveland Center
03:39PM 41.6492 -84.0828 105° East 520 598 37,000  Level Cleveland Center
03:40PM 41.6058 -83.8619 105° East 519 597 37,000 97 Level Cleveland Center
03:41PM 41.5697 -83.6744 104° East 523 602 37,200 919 Climbing Cleveland Center
03:42PM 41.5317 -83.4853 105° East 533 613 38,900 871 Climbing Cleveland Center
03:43PM 41.4942 -83.3000 105° East 523 602 39,000 48 Climbing Cleveland Center
03:44PM 41.4508 -83.0861 105° East 516 594 39,000  Level Cleveland Center
03:45PM 41.4139 -82.9003 105° East 516 594 39,000  Level Cleveland Center
03:46PM 41.3750 -82.7153 106° East 516 594 39,000  Level Cleveland Center
03:47PM 41.3364 -82.5314 106° East 514 592 39,000  Level Cleveland Center
03:48PM 41.2989 -82.3475 105° East 514 592 39,000  Level Cleveland Center
03:49PM 41.2583 -82.1636 106° East 514 592 39,000  Level Cleveland Center
03:50PM 41.2181 -81.9714 106° East 514 592 39,000  Level Cleveland Center
03:51PM 41.1783 -81.7878 106° East 518 596 39,000  Level Cleveland Center
03:52PM 41.1383 -81.6042 106° East 518 596 39,000  Level Cleveland Center
03:53PM 41.0944 -81.4036 106° East 518 596 39,000  Level Cleveland Center
03:54PM 41.0533 -81.2214 107° East 516 594 39,000  Level Cleveland Center
03:55PM 41.0083 -81.0211 107° East 516 594 39,000  Level Cleveland Center
03:56PM 40.9675 -80.8392 106° East 516 594 39,000  Level Cleveland Center
03:57PM 40.9261 -80.6572 107° East 516 594 39,000  Level Cleveland Center
03:58PM 40.8858 -80.4756 106° East 515 593 39,000  Level Cleveland Center
03:59PM 40.8419 -80.2875 107° East 515 593 39,000  Level Cleveland Center
04:00PM 40.7775 -80.0803 112° Southeast 514 592 39,000  Level Cleveland Center
04:01PM 40.7156 -79.9125 116° Southeast 514 592 39,000  Level Cleveland Center
04:02PM 40.6536 -79.7428 116° Southeast 513 590 39,000  Level Cleveland Center
04:04PM 40.5911 -79.5719 116° Southeast 513 590 39,000  Level Cleveland Center
04:05PM 40.5444 -79.3908 109° East 530 610 39,000  Level Cleveland Center
04:06PM 40.5128 -79.1794 101° East 523 602 39,000 -823 Level Cleveland Center
04:07PM 40.4828 -78.9936 102° East 524 603 37,300 -1,306 Descending Cleveland Center
04:08PM 40.4647 -78.8056 97° East 525 604 36,300 -1,694 Descending Cleveland Center
04:09PM 40.4492 -78.6158 96° East 526 605 33,800 -2,736 Descending Cleveland Center
04:10PM 40.4294 -78.3867 96° East 531 611 30,600 -2,640 Descending Cleveland Center
04:11PM 40.4128 -78.2050 97° East 515 593 28,300 -2,177 Descending Cleveland Center
04:12PM 40.3969 -78.0294 97° East 495 570 26,100 -1,597 Descending Cleveland Center
04:13PM 40.3775 -77.8594 98° East 481 554 25,000 -1,500 Descending Cleveland Center
04:14PM 40.3461 -77.6672 102° East 459 528 23,000 -1,984 Descending Cleveland Center
04:15PM 40.3222 -77.5108 101° East 447 514 20,900 -1,500 Descending Cleveland Center
04:16PM 40.2975 -77.3608 102° East 429 494 19,900 -1,016 Descending Cleveland Center
04:17PM 40.2700 -77.1958 102° East 417 480 18,800 -991 Descending Cleveland Center
04:18PM 40.2506 -77.0764 102° East 413 475 18,000 -417 Descending New York Center
04:19PM 40.2261 -76.9258 102° East 399 459 18,000  Level New York Center
04:20PM 40.2042 -76.7953 102° East 384 442 18,000 -435 Level New York Center
04:21PM 40.1789 -76.6419 102° East 398 458 17,100 -1,548 Descending New York Center
04:22PM 40.1536 -76.4903 102° East 393 452 14,800 -2,112 Descending New York Center
04:23PM 40.1297 -76.3517 103° East 377 434 12,700 -1,344 Descending New York Center
04:24PM 40.1147 -76.2286 99° East 357 411 12,000 -532 Descending New York Center
04:25PM 40.1061 -76.0983 95° East 350 403 11,600 -823 Descending New York Center
04:26PM 40.0972 -75.9725 95° East 335 386 10,300 -1,258 Descending New York Center
04:27PM 40.0892 -75.8564 95° East 309 356 9,000 -1,210 Descending New York Center
04:28PM 40.0819 -75.7511 95° East 293 337 7,800 -1,113 Descending New York Center
04:29PM 40.0769 -75.6414 93° East 285 328 6,700 -864 Descending New York Center
04:30PM 40.0725 -75.5419 93° East 278 320 6,000 -336 Descending New York Center
04:31PM 40.0669 -75.4361 94° East 272 313 6,000  Level New York Center
04:32PM 40.0625 -75.3383 93° East 272 313 6,000  Level New York Center
04:33PM 40.0567 -75.2342 94° East 267 307 6,000  Level New York Center
04:34PM 40.0056 -75.1869 145° Southeast 256 295 6,000 -49 Level New York Center
04:35PM 39.9833 -75.1167 112° Southeast 230 265 5,900 -446 Descending Philadelphia TRACON
04:36PM 40.0000 -75.0333 75° East 222 255 5,100 -850 Descending Philadelphia TRACON
04:37PM 40.0000 -74.9667 90° East 217 250 4,200 -1,000 Descending Philadelphia TRACON
04:38PM 39.9500 -74.9500 166° South 193 222 3,100 -600 Descending Philadelphia TRACON
04:39PM 39.9167 -75.0167 237° Southwest 190 219 3,000 -450 Descending Philadelphia TRACON
04:40PM 39.9000 -75.0833 252° West 186 214 2,200 -850 Descending Philadelphia TRACON
04:41PM 39.9000 -75.1333 270° West 138 159 1,300 -750 Descending Philadelphia TRACON
04:42PM 39.8833 -75.1833 247° West 138 159 700 -600 Descending Philadelphia TRACON
04:46PM 39.8667 -75.2333 North  Level FlightAware Approximate